QPF
0.00 0.00 0.00 0.01 0.01 0.01 0.01 0.01 0.01 0.01 0.03 0.06 0.07 0.07 0.05 0.03 0.02 0.02 0.00 0.00 0.00 0.00 0.01 0.01 0.01 0.00 0.00 0.00 0.00 0.00 0.00 0.00 0.00 0.00 0.00 0.00 0.00 0.00 0.01 0.01 0.01 0.01 0.02 0.01 0.01 0.02 0.01 0.01 0.01
0.00 0.00 0.00 0.01 0.02 0.00 0.01 0.01 0.02 0.01 0.02 0.03 0.05 0.07 0.04 0.01 0.01 0.00 0.01 0.01 0.01 0.00 0.00 0.01 0.01 0.00 0.00 0.00 0.00 0.00 0.00 0.01 0.00 0.00 0.00 0.00 0.00 0.00 0.01 0.01 0.01 0.01 0.02 0.02 0.02 0.02 0.01 0.01 0.01
0.00 0.00 0.00 0.01 0.01 0.00 0.00 0.01 0.01 0.02 0.02 0.02 0.04 0.06 0.02 0.01 0.00 0.01 0.01 0.01 0.02 0.01 0.00 0.00 0.01 0.00 0.00 0.00 0.00 0.00 0.00 0.01 0.00 0.00 0.00 0.00 0.01 0.01 0.01 0.01 0.01 0.01 0.01 0.01 0.01 0.01 0.01 0.01 0.01
0.00 0.00 0.00 0.01 0.00 0.00 0.00 0.01 0.01 0.01 0.02 0.02 0.02 0.02 0.01 0.01 0.00 0.01 0.01 0.01 0.02 0.01 0.01 0.01 0.01 0.01 0.00 0.01 0.01 0.00 0.00 0.01 0.00 0.00 0.00 0.01 0.01 0.01 0.01 0.01 0.01 0.01 0.01 0.01 0.01 0.01 0.01 0.01 0.02
0.00 0.00 0.00 0.00 0.00 0.00 0.00 0.00 0.01 0.01 0.02 0.02 0.02 0.01 0.01 0.01 0.01 0.02 0.02 0.01 0.02 0.01 0.00 0.01 0.01 0.01 0.01 0.00 0.00 0.00 0.00 0.00 0.01 0.01 0.01 0.01 0.01 0.01 0.00 0.00 0.01 0.01 0.00 0.01 0.01 0.01 0.01 0.01 0.02
0.00 0.00 0.00 0.00 0.00 0.00 0.00 0.00 0.01 0.01 0.01 0.02 0.02 0.01 0.01 0.01 0.01 0.03 0.05 0.03 0.02 0.01 0.02 0.02 0.02 0.01 0.01 0.00 0.01 0.01 0.01 0.01 0.01 0.01 0.01 0.01 0.01 0.01 0.00 0.00 0.00 0.00 0.00 0.00 0.01 0.01 0.01 0.01 0.02
0.00 0.00 0.00 0.00 0.00 0.00 0.00 0.01 0.01 0.00 0.01 0.02 0.01 0.01 0.02 0.02 0.03 0.04 0.07 0.07 0.06 0.06 0.06 0.04 0.03 0.02 0.01 0.01 0.01 0.01 0.01 0.01 0.01 0.01 0.01 0.01 0.01 0.01 0.01 0.01 0.00 0.00 0.00 0.00 0.00 0.01 0.01 0.01 0.02
0.00 0.00 0.00 0.00 0.00 0.00 0.00 0.00 0.00 0.00 0.01 0.01 0.01 0.02 0.02 0.02 0.04 0.05 0.11 0.13 0.09 0.10 0.12 0.07 0.03 0.03 0.02 0.02 0.02 0.02 0.02 0.01 0.01 0.01 0.01 0.01 0.01 0.01 0.01 0.01 0.01 0.01 0.01 0.01 0.00 0.00 0.01 0.01 0.01
0.00 0.00 0.00 0.00 0.00 0.00 0.00 0.00 0.00 0.01 0.01 0.01 0.02 0.02 0.01 0.03 0.04 0.06 0.11 0.13 0.10 0.11 0.13 0.09 0.07 0.04 0.02 0.02 0.01 0.01 0.01 0.02 0.02 0.01 0.01 0.01 0.01 0.01 0.01 0.01 0.01 0.01 0.01 0.01 0.01 0.01 0.01 0.01 0.01
0.00 0.00 0.00 0.00 0.00 0.00 0.00 0.00 0.01 0.01 0.01 0.01 0.02 0.02 0.02 0.03 0.05 0.06 0.09 0.09 0.09 0.11 0.12 0.08 0.07 0.05 0.04 0.02 0.01 0.01 0.01 0.01 0.01 0.01 0.01 0.00 0.00 0.01 0.01 0.01 0.02 0.01 0.01 0.01 0.01 0.01 0.01 0.01 0.00
0.00 0.00 0.00 0.00 0.00 0.00 0.00 0.00 0.01 0.01 0.01 0.01 0.01 0.02 0.02 0.07 0.08 0.10 0.11 0.15 0.21 0.22 0.17 0.11 0.10 0.06 0.04 0.02 0.02 0.01 0.01 0.01 0.01 0.01 0.01 0.00 0.01 0.01 0.01 0.01 0.01 0.01 0.01 0.00 0.01 0.01 0.01 0.01 0.01
0.00 0.00 0.00 0.00 0.00 0.00 0.00 0.00 0.00 0.00 0.00 0.01 0.02 0.05 0.06 0.08 0.09 0.12 0.13 0.18 0.30 0.29 0.22 0.17 0.14 0.09 0.06 0.05 0.03 0.02 0.01 0.01 0.01 0.01 0.02 0.01 0.01 0.02 0.01 0.01 0.02 0.01 0.01 0.01 0.01 0.01 0.01 0.01 0.01
0.00 0.00 0.00 0.00 0.00 0.00 0.00 0.00 0.00 0.00 0.00 0.01 0.03 0.08 0.09 0.08 0.09 0.14 0.20 0.20 0.19 0.17 0.13 0.17 0.15 0.10 0.09 0.06 0.04 0.03 0.02 0.02 0.01 0.01 0.02 0.02 0.01 0.02 0.02 0.03 0.04 0.03 0.02 0.02 0.01 0.01 0.01 0.01 0.01
0.00 0.00 0.00 0.00 0.00 0.00 0.00 0.00 0.00 0.00 0.00 0.01 0.02 0.05 0.07 0.07 0.08 0.13 0.22 0.28 0.23 0.19 0.15 0.16 0.17 0.13 0.10 0.08 0.06 0.04 0.03 0.03 0.02 0.01 0.01 0.02 0.02 0.02 0.04 0.03 0.03 0.03 0.03 0.02 0.01 0.00 0.01 0.01 0.01
0.00 0.00 0.00 0.00 0.00 0.00 0.00 0.00 0.00 0.00 0.01 0.01 0.01 0.03 0.05 0.05 0.06 0.11 0.20 0.33 0.26 0.26 0.24 0.28 0.28 0.23 0.17 0.10 0.08 0.06 0.04 0.03 0.02 0.02 0.02 0.02 0.02 0.02 0.03 0.03 0.02 0.02 0.02 0.02 0.01 0.01 0.01 0.01 0.01
0.00 0.00 0.00 0.00 0.00 0.00 0.00 0.00 0.00 0.00 0.01 0.01 0.02 0.04 0.04 0.05 0.06 0.10 0.16 0.27 0.24 0.24 0.25 0.29 0.36 0.30 0.19 0.14 0.10 0.07 0.06 0.04 0.04 0.03 0.03 0.03 0.03 0.03 0.03 0.03 0.03 0.03 0.02 0.02 0.01 0.01 0.00 0.00 0.01
0.00 0.00 0.00 0.00 0.00 0.00 0.00 0.00 0.00 0.01 0.02 0.02 0.03 0.03 0.04 0.07 0.09 0.11 0.15 0.24 0.22 0.23 0.24 0.25 0.22 0.21 0.18 0.15 0.13 0.10 0.08 0.07 0.06 0.05 0.05 0.04 0.03 0.04 0.03 0.03 0.04 0.03 0.02 0.01 0.01 0.01 0.00 0.00 0.00
0.00 0.00 0.00 0.00 0.00 0.00 0.00 0.00 0.01 0.02 0.01 0.01 0.03 0.03 0.04 0.06 0.08 0.09 0.13 0.22 0.25 0.28 0.31 0.29 0.23 0.18 0.16 0.16 0.15 0.13 0.12 0.09 0.07 0.06 0.04 0.04 0.04 0.03 0.03 0.03 0.04 0.03 0.01 0.01 0.01 0.01 0.01 0.00 0.00
0.00 0.00 0.00 0.00 0.00 0.00 0.00 0.01 0.01 0.01 0.01 0.02 0.02 0.02 0.03 0.05 0.07 0.09 0.12 0.23 0.33 0.39 0.39 0.33 0.27 0.21 0.17 0.13 0.11 0.09 0.10 0.08 0.06 0.05 0.04 0.04 0.04 0.04 0.03 0.03 0.02 0.02 0.02 0.02 0.01 0.01 0.01 0.00 0.00
0.00 0.00 0.00 0.00 0.00 0.00 0.00 0.00 0.01 0.01 0.01 0.01 0.01 0.01 0.03 0.05 0.07 0.10 0.14 0.22 0.27 0.38 0.42 0.38 0.34 0.28 0.20 0.14 0.12 0.11 0.12 0.10 0.07 0.05 0.04 0.03 0.04 0.03 0.02 0.02 0.02 0.02 0.02 0.02 0.01 0.01 0.00 0.00 0.00
0.00 0.00 0.00 0.00 0.00 0.00 0.00 0.01 0.01 0.01 0.01 0.01 0.01 0.01 0.02 0.06 0.06 0.06 0.14 0.20 0.26 0.35 0.44 0.38 0.35 0.34 0.26 0.19 0.16 0.14 0.12 0.10 0.06 0.03 0.02 0.02 0.02 0.02 0.02 0.02 0.02 0.01 0.01 0.01 0.01 0.01 0.00 0.00 0.00
0.00 0.00 0.00 0.00 0.00 0.00 0.00 0.01 0.01 0.01 0.01 0.01 0.02 0.03 0.02 0.03 0.03 0.04 0.11 0.19 0.25 0.30 0.33 0.30 0.27 0.31 0.29 0.22 0.13 0.08 0.06 0.05 0.04 0.03 0.03 0.03 0.02 0.01 0.01 0.01 0.01 0.01 0.01 0.01 0.00 0.01 0.01 0.00 0.01
0.00 0.00 0.00 0.01 0.01 0.00 0.00 0.00 0.00 0.01 0.01 0.01 0.02 0.02 0.01 0.03 0.05 0.04 0.07 0.16 0.17 0.24 0.24 0.21 0.16 0.25 0.25 0.20 0.13 0.09 0.05 0.05 0.04 0.03 0.02 0.02 0.02 0.01 0.01 0.01 0.00 0.00 0.00 0.00 0.00 0.01 0.01 0.00 0.01
0.00 0.00 0.00 0.01 0.01 0.00 0.00 0.00 0.00 0.00 0.00 0.01 0.02 0.02 0.02 0.02 0.05 0.06 0.11 0.17 0.16 0.14 0.14 0.12 0.10 0.16 0.19 0.15 0.12 0.10 0.06 0.05 0.04 0.02 0.01 0.01 0.01 0.01 0.01 0.01 0.01 0.01 0.01 0.01 0.01 0.00 0.01 0.01 0.01
0.00 0.00 0.01 0.00 0.00 0.01 0.00 0.00 0.00 0.00 0.00 0.00 0.00 0.01 0.01 0.01 0.03 0.06 0.09 0.12 0.12 0.10 0.09 0.07 0.09 0.13 0.12 0.09 0.08 0.08 0.07 0.05 0.03 0.03 0.02 0.01 0.01 0.02 0.02 0.02 0.02 0.02 0.01 0.01 0.01 0.01 0.01 0.01 0.01
0.00 0.00 0.01 0.01 0.01 0.01 0.00 0.00 0.00 0.00 0.00 0.00 0.00 0.01 0.01 0.01 0.01 0.02 0.03 0.06 0.09 0.08 0.06 0.05 0.08 0.10 0.07 0.06 0.07 0.07 0.05 0.04 0.04 0.03 0.02 0.02 0.02 0.02 0.03 0.03 0.02 0.02 0.01 0.01 0.01 0.01 0.01 0.01 0.01
0.00 0.00 0.00 0.01 0.01 0.00 0.00 0.00 0.00 0.00 0.00 0.00 0.00 0.00 0.00 0.00 0.01 0.01 0.01 0.02 0.04 0.04 0.03 0.03 0.05 0.06 0.06 0.06 0.07 0.07 0.06 0.04 0.03 0.03 0.02 0.01 0.01 0.01 0.01 0.01 0.02 0.01 0.01 0.01 0.01 0.01 0.01 0.01 0.01
0.00 0.01 0.01 0.01 0.00 0.00 0.00 0.00 0.00 0.00 0.01 0.00 0.00 0.00 0.00 0.01 0.02 0.01 0.01 0.02 0.03 0.03 0.03 0.03 0.03 0.04 0.04 0.05 0.06 0.07 0.07 0.05 0.03 0.03 0.01 0.01 0.01 0.01 0.00 0.01 0.02 0.02 0.01 0.01 0.01 0.01 0.00 0.00 0.00
0.00 0.01 0.01 0.01 0.01 0.01 0.01 0.00 0.00 0.00 0.00 0.00 0.00 0.00 0.01 0.01 0.02 0.02 0.02 0.02 0.03 0.03 0.03 0.03 0.03 0.03 0.04 0.03 0.03 0.03 0.03 0.03 0.03 0.03 0.02 0.01 0.01 0.01 0.01 0.01 0.01 0.02 0.01 0.01 0.01 0.01 0.01 0.00 0.00
0.00 0.00 0.01 0.00 0.00 0.01 0.01 0.00 0.00 0.01 0.00 0.00 0.00 0.00 0.01 0.01 0.01 0.01 0.02 0.03 0.02 0.02 0.02 0.02 0.03 0.02 0.03 0.02 0.02 0.02 0.02 0.03 0.03 0.02 0.02 0.02 0.01 0.01 0.02 0.02 0.01 0.01 0.01 0.02 0.01 0.02 0.01 0.00 0.00
MSLP
1008.05 1009.05 1010.13 1011.11 1011.86 1012.27 1012.35 1012.13 1011.73 1011.27 1010.89 1010.63 1010.54 1010.57 1010.65 1010.71 1010.68 1010.54 1010.33 1010.09 1009.90 1009.84 1009.95 1010.24 1010.68 1011.20 1011.73 1012.20 1012.56 1012.80 1012.95 1013.05 1013.14 1013.26 1013.44 1013.68 1013.96 1014.24 1014.50 1014.70 1014.85 1014.94 1014.99 1015.02 1015.06 1015.12 1015.20 1015.30 1015.43
1008.40 1009.53 1010.66 1011.60 1012.22 1012.45 1012.29 1011.83 1011.20 1010.55 1010.00 1009.65 1009.49 1009.49 1009.58 1009.67 1009.71 1009.66 1009.55 1009.43 1009.37 1009.45 1009.68 1010.08 1010.61 1011.20 1011.78 1012.28 1012.69 1012.98 1013.18 1013.33 1013.47 1013.64 1013.85 1014.10 1014.37 1014.62 1014.83 1015.00 1015.11 1015.17 1015.21 1015.24 1015.29 1015.36 1015.45 1015.57 1015.70
1008.86 1010.07 1011.19 1012.03 1012.49 1012.50 1012.11 1011.43 1010.61 1009.81 1009.18 1008.76 1008.59 1008.60 1008.72 1008.87 1008.97 1009.01 1009.00 1008.99 1009.04 1009.22 1009.55 1010.03 1010.61 1011.24 1011.84 1012.37 1012.79 1013.11 1013.34 1013.54 1013.73 1013.94 1014.18 1014.44 1014.69 1014.92 1015.10 1015.23 1015.31 1015.37 1015.41 1015.46 1015.53 1015.63 1015.74 1015.87 1016.01
1009.42 1010.64 1011.68 1012.38 1012.64 1012.44 1011.84 1010.99 1010.05 1009.18 1008.51 1008.10 1007.95 1008.00 1008.17 1008.37 1008.53 1008.64 1008.71 1008.79 1008.94 1009.20 1009.60 1010.12 1010.72 1011.34 1011.94 1012.45 1012.86 1013.18 1013.44 1013.67 1013.89 1014.14 1014.40 1014.67 1014.93 1015.14 1015.31 1015.42 1015.50 1015.56 1015.63 1015.71 1015.82 1015.94 1016.08 1016.23 1016.39
1010.03 1011.19 1012.10 1012.61 1012.66 1012.27 1011.52 1010.56 1009.56 1008.69 1008.05 1007.69 1007.60 1007.71 1007.92 1008.17 1008.38 1008.55 1008.68 1008.83 1009.04 1009.35 1009.79 1010.33 1010.92 1011.52 1012.07 1012.53 1012.91 1013.22 1013.47 1013.71 1013.97 1014.25 1014.54 1014.84 1015.10 1015.33 1015.50 1015.62 1015.71 1015.80 1015.90 1016.01 1016.16 1016.31 1016.48 1016.64 1016.80
1010.62 1011.65 1012.37 1012.67 1012.52 1011.97 1011.12 1010.12 1009.15 1008.34 1007.79 1007.52 1007.51 1007.68 1007.94 1008.21 1008.45 1008.65 1008.82 1009.01 1009.27 1009.62 1010.08 1010.61 1011.18 1011.73 1012.22 1012.63 1012.96 1013.22 1013.47 1013.72 1014.00 1014.31 1014.64 1014.96 1015.26 1015.51 1015.70 1015.85 1015.97 1016.09 1016.22 1016.37 1016.53 1016.71 1016.89 1017.05 1017.21
1011.08 1011.93 1012.42 1012.51 1012.18 1011.51 1010.61 1009.64 1008.75 1008.06 1007.64 1007.49 1007.57 1007.79 1008.09 1008.38 1008.63 1008.84 1009.03 1009.25 1009.54 1009.92 1010.39 1010.91 1011.45 1011.95 1012.38 1012.73 1013.01 1013.24 1013.47 1013.72 1014.02 1014.37 1014.74 1015.10 1015.44 1015.72 1015.95 1016.12 1016.27 1016.41 1016.57 1016.74 1016.92 1017.10 1017.27 1017.42 1017.56
1011.33 1011.96 1012.22 1012.10 1011.62 1010.87 1009.98 1009.09 1008.32 1007.79 1007.51 1007.49 1007.65 1007.93 1008.25 1008.54 1008.79 1009.00 1009.20 1009.45 1009.76 1010.17 1010.65 1011.17 1011.68 1012.15 1012.54 1012.84 1013.08 1013.29 1013.50 1013.77 1014.09 1014.47 1014.88 1015.29 1015.66 1015.98 1016.24 1016.44 1016.60 1016.76 1016.92 1017.09 1017.26 1017.43 1017.58 1017.72 1017.84
1011.33 1011.72 1011.75 1011.44 1010.85 1010.06 1009.21 1008.43 1007.81 1007.44 1007.32 1007.41 1007.66 1007.99 1008.32 1008.61 1008.85 1009.06 1009.27 1009.54 1009.88 1010.31 1010.81 1011.34 1011.85 1012.30 1012.67 1012.95 1013.18 1013.38 1013.61 1013.89 1014.24 1014.64 1015.08 1015.52 1015.92 1016.27 1016.54 1016.76 1016.93 1017.08 1017.23 1017.38 1017.54 1017.69 1017.82 1017.93 1018.03
1011.09 1011.25 1011.08 1010.62 1009.94 1009.14 1008.36 1007.69 1007.22 1007.01 1007.02 1007.22 1007.54 1007.91 1008.25 1008.55 1008.79 1009.00 1009.22 1009.51 1009.87 1010.33 1010.85 1011.40 1011.92 1012.39 1012.77 1013.07 1013.31 1013.54 1013.78 1014.08 1014.45 1014.88 1015.34 1015.79 1016.21 1016.56 1016.84 1017.05 1017.22 1017.36 1017.49 1017.62 1017.75 1017.88 1017.99 1018.09 1018.18
1010.68 1010.65 1010.31 1009.73 1009.00 1008.22 1007.50 1006.94 1006.60 1006.51 1006.64 1006.93 1007.31 1007.70 1008.07 1008.37 1008.61 1008.83 1009.07 1009.37 1009.75 1010.22 1010.76 1011.33 1011.89 1012.39 1012.81 1013.16 1013.45 1013.72 1014.00 1014.33 1014.72 1015.15 1015.61 1016.06 1016.46 1016.81 1017.08 1017.29 1017.44 1017.57 1017.68 1017.80 1017.92 1018.03 1018.14 1018.24 1018.33
1010.23 1010.05 1009.59 1008.94 1008.17 1007.42 1006.76 1006.29 1006.04 1006.04 1006.24 1006.59 1007.01 1007.44 1007.83 1008.14 1008.40 1008.62 1008.86 1009.16 1009.54 1010.01 1010.56 1011.15 1011.74 1012.29 1012.78 1013.20 1013.56 1013.90 1014.23 1014.59 1014.98 1015.41 1015.85 1016.27 1016.66 1016.99 1017.25 1017.45 1017.60 1017.72 1017.84 1017.95 1018.07 1018.20 1018.32 1018.43 1018.53
1009.89 1009.61 1009.07 1008.37 1007.61 1006.87 1006.25 1005.83 1005.64 1005.69 1005.93 1006.31 1006.75 1007.20 1007.61 1007.94 1008.21 1008.43 1008.66 1008.93 1009.28 1009.72 1010.25 1010.84 1011.46 1012.07 1012.64 1013.15 1013.61 1014.03 1014.42 1014.81 1015.20 1015.61 1016.02 1016.41 1016.76 1017.07 1017.33 1017.53 1017.70 1017.84 1017.98 1018.11 1018.26 1018.41 1018.56 1018.70 1018.83
1009.77 1009.43 1008.86 1008.15 1007.39 1006.67 1006.08 1005.67 1005.49 1005.54 1005.78 1006.16 1006.61 1007.08 1007.49 1007.84 1008.10 1008.31 1008.49 1008.70 1008.98 1009.35 1009.83 1010.40 1011.04 1011.71 1012.37 1012.99 1013.57 1014.08 1014.54 1014.96 1015.35 1015.73 1016.09 1016.44 1016.77 1017.06 1017.33 1017.56 1017.76 1017.95 1018.13 1018.31 1018.50 1018.69 1018.88 1019.06 1019.22
1009.90 1009.53 1008.96 1008.27 1007.53 1006.83 1006.25 1005.83 1005.63 1005.64 1005.84 1006.19 1006.63 1007.09 1007.51 1007.85 1008.10 1008.26 1008.37 1008.49 1008.66 1008.93 1009.33 1009.86 1010.50 1011.22 1011.98 1012.72 1013.41 1014.03 1014.56 1015.02 1015.41 1015.76 1016.08 1016.38 1016.68 1016.98 1017.26 1017.54 1017.80 1018.06 1018.30 1018.55 1018.79 1019.03 1019.26 1019.47 1019.67
1010.23 1009.87 1009.33 1008.67 1007.97 1007.30 1006.71 1006.27 1006.02 1005.97 1006.11 1006.40 1006.80 1007.24 1007.64 1007.96 1008.17 1008.27 1008.29 1008.28 1008.32 1008.46 1008.75 1009.22 1009.87 1010.64 1011.49 1012.35 1013.17 1013.90 1014.51 1015.01 1015.40 1015.72 1016.00 1016.27 1016.55 1016.85 1017.17 1017.50 1017.84 1018.18 1018.50 1018.81 1019.10 1019.38 1019.64 1019.89 1020.10
1010.63 1010.30 1009.82 1009.24 1008.60 1007.96 1007.39 1006.91 1006.60 1006.46 1006.52 1006.74 1007.08 1007.47 1007.84 1008.13 1008.29 1008.31 1008.22 1008.08 1007.98 1007.98 1008.16 1008.57 1009.20 1010.02 1010.97 1011.95 1012.89 1013.73 1014.43 1014.96 1015.35 1015.65 1015.89 1016.13 1016.40 1016.71 1017.07 1017.47 1017.89 1018.30 1018.69 1019.06 1019.40 1019.70 1019.98 1020.24 1020.46
1010.96 1010.69 1010.30 1009.82 1009.28 1008.71 1008.15 1007.66 1007.28 1007.05 1007.01 1007.14 1007.40 1007.73 1008.05 1008.29 1008.40 1008.34 1008.16 1007.90 1007.66 1007.54 1007.62 1007.97 1008.59 1009.46 1010.48 1011.58 1012.64 1013.58 1014.35 1014.93 1015.32 1015.59 1015.81 1016.01 1016.27 1016.59 1016.99 1017.45 1017.93 1018.41 1018.86 1019.27 1019.63 1019.94 1020.22 1020.47 1020.69
1011.08 1010.90 1010.65 1010.32 1009.91 1009.44 1008.93 1008.42 1007.98 1007.66 1007.50 1007.52 1007.68 1007.94 1008.21 1008.41 1008.47 1008.36 1008.11 1007.76 1007.43 1007.21 1007.22 1007.51 1008.13 1009.03 1010.13 1011.32 1012.48 1013.50 1014.33 1014.94 1015.33 1015.58 1015.76 1015.94 1016.18 1016.51 1016.94 1017.44 1017.97 1018.50 1018.98 1019.40 1019.76 1020.06 1020.33 1020.56 1020.78
1010.93 1010.88 1010.81 1010.67 1010.44 1010.10 1009.66 1009.16 1008.66 1008.24 1007.96 1007.84 1007.90 1008.07 1008.28 1008.45 1008.49 1008.37 1008.09 1007.71 1007.33 1007.06 1007.03 1007.29 1007.91 1008.83 1009.97 1011.21 1012.44 1013.52 1014.39 1015.00 1015.39 1015.62 1015.77 1015.92 1016.14 1016.47 1016.91 1017.43 1017.98 1018.53 1019.02 1019.44 1019.79 1020.06 1020.30 1020.51 1020.72
1010.53 1010.66 1010.80 1010.89 1010.87 1010.69 1010.33 1009.85 1009.29 1008.76 1008.34 1008.09 1008.02 1008.10 1008.26 1008.42 1008.48 1008.39 1008.14 1007.79 1007.42 1007.16 1007.11 1007.36 1007.96 1008.88 1010.03 1011.29 1012.53 1013.63 1014.50 1015.12 1015.49 1015.70 1015.82 1015.94 1016.14 1016.45 1016.88 1017.41 1017.97 1018.51 1019.00 1019.40 1019.71 1019.95 1020.16 1020.35 1020.55
1009.98 1010.33 1010.72 1011.07 1011.27 1011.25 1010.99 1010.51 1009.89 1009.24 1008.66 1008.26 1008.06 1008.05 1008.17 1008.34 1008.45 1008.44 1008.29 1008.02 1007.73 1007.50 1007.47 1007.72 1008.30 1009.18 1010.29 1011.51 1012.72 1013.79 1014.64 1015.23 1015.59 1015.76 1015.86 1015.96 1016.14 1016.44 1016.85 1017.36 1017.91 1018.44 1018.90 1019.28 1019.56 1019.77 1019.95 1020.12 1020.32
1009.45 1010.03 1010.69 1011.29 1011.71 1011.84 1011.65 1011.16 1010.45 1009.66 1008.93 1008.36 1008.03 1007.93 1008.03 1008.22 1008.43 1008.54 1008.53 1008.40 1008.21 1008.07 1008.08 1008.32 1008.85 1009.66 1010.68 1011.82 1012.94 1013.95 1014.74 1015.30 1015.62 1015.78 1015.87 1015.95 1016.12 1016.40 1016.80 1017.30 1017.82 1018.33 1018.77 1019.12 1019.38 1019.57 1019.73 1019.89 1020.09
1009.07 1009.88 1010.78 1011.61 1012.21 1012.45 1012.30 1011.78 1010.97 1010.03 1009.13 1008.40 1007.94 1007.76 1007.84 1008.10 1008.41 1008.67 1008.83 1008.87 1008.83 1008.78 1008.83 1009.05 1009.52 1010.22 1011.12 1012.13 1013.13 1014.03 1014.75 1015.26 1015.56 1015.72 1015.80 1015.89 1016.06 1016.33 1016.72 1017.20 1017.71 1018.19 1018.61 1018.95 1019.19 1019.37 1019.53 1019.69 1019.89
1008.92 1009.94 1011.03 1012.03 1012.74 1013.05 1012.90 1012.31 1011.39 1010.31 1009.24 1008.36 1007.79 1007.55 1007.63 1007.95 1008.38 1008.81 1009.15 1009.37 1009.47 1009.52 1009.61 1009.81 1010.19 1010.77 1011.51 1012.36 1013.22 1014.00 1014.64 1015.10 1015.38 1015.54 1015.64 1015.76 1015.94 1016.22 1016.61 1017.07 1017.57 1018.04 1018.45 1018.79 1019.03 1019.22 1019.38 1019.55 1019.75
1009.01 1010.16 1011.38 1012.47 1013.23 1013.55 1013.35 1012.68 1011.64 1010.42 1009.23 1008.23 1007.57 1007.29 1007.39 1007.77 1008.32 1008.91 1009.42 1009.80 1010.04 1010.18 1010.30 1010.47 1010.76 1011.20 1011.79 1012.47 1013.17 1013.84 1014.39 1014.81 1015.10 1015.28 1015.41 1015.56 1015.77 1016.07 1016.47 1016.93 1017.42 1017.89 1018.30 1018.64 1018.91 1019.11 1019.28 1019.46 1019.67
1009.25 1010.47 1011.72 1012.81 1013.55 1013.81 1013.54 1012.78 1011.65 1010.33 1009.04 1007.97 1007.26 1006.98 1007.10 1007.55 1008.21 1008.92 1009.57 1010.09 1010.45 1010.66 1010.80 1010.94 1011.15 1011.47 1011.90 1012.43 1013.00 1013.56 1014.05 1014.45 1014.74 1014.95 1015.14 1015.33 1015.58 1015.90 1016.31 1016.77 1017.26 1017.73 1018.16 1018.52 1018.81 1019.04 1019.24 1019.44 1019.65
1009.54 1010.73 1011.93 1012.94 1013.58 1013.75 1013.39 1012.54 1011.35 1009.99 1008.67 1007.59 1006.88 1006.61 1006.77 1007.27 1008.00 1008.81 1009.56 1010.18 1010.62 1010.89 1011.05 1011.17 1011.32 1011.54 1011.86 1012.27 1012.74 1013.22 1013.66 1014.05 1014.36 1014.61 1014.84 1015.09 1015.37 1015.72 1016.14 1016.60 1017.09 1017.57 1018.01 1018.40 1018.72 1018.99 1019.22 1019.44 1019.65
1009.75 1010.84 1011.90 1012.76 1013.25 1013.29 1012.84 1011.96 1010.75 1009.41 1008.13 1007.10 1006.44 1006.21 1006.40 1006.94 1007.70 1008.55 1009.36 1010.02 1010.52 1010.83 1011.02 1011.14 1011.26 1011.43 1011.69 1012.03 1012.43 1012.86 1013.28 1013.67 1014.00 1014.30 1014.57 1014.85 1015.17 1015.54 1015.97 1016.43 1016.92 1017.40 1017.86 1018.26 1018.62 1018.92 1019.19 1019.43 1019.65
1009.83 1010.75 1011.61 1012.26 1012.58 1012.49 1011.97 1011.08 1009.92 1008.66 1007.49 1006.56 1005.98 1005.80 1006.02 1006.57 1007.32 1008.16 1008.96 1009.64 1010.15 1010.50 1010.71 1010.86 1010.99 1011.17 1011.41 1011.73 1012.12 1012.53 1012.95 1013.34 1013.70 1014.02 1014.33 1014.64 1014.98 1015.36 1015.79 1016.25 1016.73 1017.21 1017.67 1018.10 1018.48 1018.81 1019.11 1019.37 1019.60
Thickness
5808 5805 5801 5790 5771 5754 5753 5767 5778 5780 5784 5792 5794 5788 5780 5775 5769 5767 5788 5795 5793 5787 5783 5779 5776 5773 5772 5770 5769 5767 5766 5765 5764 5763 5762 5761 5760 5759 5759 5757 5756 5755 5755 5753 5752 5751 5750 5749 5748
5808 5803 5793 5779 5757 5743 5753 5773 5778 5785 5792 5796 5795 5791 5784 5781 5787 5785 5788 5792 5791 5786 5782 5778 5775 5772 5770 5768 5767 5765 5764 5763 5762 5761 5760 5759 5758 5757 5757 5756 5755 5754 5753 5752 5750 5749 5748 5747 5746
5807 5802 5782 5766 5753 5748 5762 5780 5786 5794 5799 5795 5790 5791 5786 5782 5787 5788 5791 5791 5788 5783 5780 5777 5774 5771 5768 5766 5764 5763 5762 5761 5760 5759 5758 5757 5756 5755 5754 5754 5753 5752 5751 5750 5749 5747 5746 5745 5744
5802 5788 5775 5759 5755 5766 5777 5789 5793 5791 5794 5795 5789 5782 5786 5794 5793 5793 5793 5790 5785 5781 5778 5775 5772 5769 5766 5764 5762 5761 5759 5758 5757 5756 5756 5755 5754 5753 5752 5751 5750 5749 5749 5748 5747 5745 5744 5743 5742
5796 5777 5760 5749 5757 5776 5790 5798 5797 5790 5789 5791 5787 5778 5779 5791 5797 5795 5791 5788 5783 5779 5776 5773 5770 5767 5764 5762 5761 5759 5757 5756 5755 5754 5753 5753 5752 5751 5750 5749 5748 5747 5746 5745 5744 5743 5742 5741 5740
5780 5768 5748 5744 5759 5781 5794 5802 5799 5792 5790 5790 5785 5777 5777 5788 5790 5789 5788 5784 5781 5777 5773 5770 5767 5764 5762 5760 5759 5757 5756 5754 5753 5752 5751 5750 5749 5748 5747 5746 5746 5745 5744 5743 5742 5741 5740 5739 5738
5774 5759 5751 5754 5760 5775 5794 5804 5797 5790 5787 5789 5790 5775 5775 5781 5785 5785 5783 5780 5776 5773 5770 5767 5764 5762 5760 5758 5757 5756 5754 5753 5751 5750 5749 5748 5747 5745 5744 5744 5743 5742 5741 5740 5739 5738 5738 5737 5737
5783 5762 5756 5754 5761 5773 5796 5801 5801 5794 5790 5798 5793 5776 5773 5780 5783 5780 5777 5773 5771 5768 5766 5764 5762 5760 5758 5756 5755 5754 5752 5751 5749 5748 5746 5745 5744 5743 5742 5741 5740 5739 5738 5737 5737 5736 5736 5735 5735
5786 5755 5746 5757 5765 5779 5795 5793 5796 5802 5794 5793 5794 5790 5789 5786 5780 5773 5768 5765 5763 5762 5761 5761 5759 5757 5756 5754 5753 5751 5750 5749 5747 5746 5744 5743 5741 5740 5739 5738 5737 5737 5736 5735 5734 5734 5733 5733 5733
5774 5750 5759 5776 5783 5787 5792 5791 5791 5790 5784 5784 5785 5788 5788 5781 5775 5769 5764 5761 5759 5757 5757 5757 5756 5755 5753 5752 5750 5749 5748 5746 5745 5744 5742 5740 5738 5737 5736 5735 5735 5734 5733 5733 5732 5731 5731 5730 5730
5774 5765 5778 5787 5792 5793 5790 5791 5794 5785 5775 5782 5783 5782 5780 5776 5770 5766 5763 5761 5759 5757 5755 5753 5752 5751 5751 5750 5748 5746 5745 5743 5742 5741 5739 5737 5736 5734 5733 5733 5732 5731 5731 5730 5729 5729 5728 5728 5727
5776 5780 5787 5791 5798 5794 5791 5791 5788 5785 5787 5797 5795 5788 5781 5774 5769 5766 5762 5758 5755 5753 5752 5750 5749 5748 5747 5746 5745 5743 5742 5740 5739 5738 5737 5735 5733 5732 5731 5729 5729 5728 5728 5727 5727 5726 5726 5726 5726
5778 5782 5791 5796 5796 5795 5793 5788 5787 5786 5794 5796 5792 5783 5776 5773 5767 5763 5761 5756 5753 5750 5750 5748 5746 5745 5744 5743 5742 5741 5740 5738 5737 5735 5734 5733 5731 5730 5728 5727 5726 5725 5725 5725 5725 5724 5724 5724 5724
5784 5786 5789 5793 5794 5796 5790 5787 5783 5785 5791 5788 5783 5777 5773 5769 5765 5760 5757 5753 5750 5749 5747 5746 5743 5742 5740 5739 5739 5738 5737 5736 5735 5733 5732 5731 5729 5728 5727 5725 5724 5723 5723 5723 5722 5722 5721 5721 5721
5787 5779 5782 5788 5792 5792 5788 5776 5778 5786 5787 5781 5777 5773 5769 5764 5762 5759 5756 5753 5750 5747 5744 5743 5741 5739 5737 5736 5736 5735 5734 5733 5732 5731 5730 5729 5728 5727 5725 5723 5722 5721 5721 5721 5720 5720 5719 5719 5719
5776 5767 5761 5778 5785 5787 5778 5763 5779 5785 5781 5774 5772 5769 5765 5762 5759 5757 5753 5750 5747 5744 5741 5739 5738 5736 5735 5734 5734 5733 5732 5731 5730 5729 5728 5728 5727 5725 5724 5722 5720 5720 5719 5719 5719 5718 5717 5716 5716
5751 5745 5752 5765 5780 5780 5771 5764 5776 5781 5777 5770 5768 5766 5761 5757 5755 5752 5751 5747 5743 5741 5738 5735 5735 5734 5733 5732 5731 5730 5729 5729 5728 5727 5727 5726 5725 5724 5723 5721 5719 5719 5718 5717 5718 5716 5715 5714 5714
5740 5744 5748 5754 5771 5772 5764 5763 5772 5776 5774 5769 5765 5761 5757 5754 5752 5751 5748 5744 5740 5737 5734 5732 5731 5731 5730 5728 5727 5726 5725 5725 5726 5725 5725 5724 5724 5723 5721 5719 5718 5717 5717 5716 5715 5714 5713 5712 5712
5752 5747 5744 5757 5772 5766 5761 5760 5765 5770 5768 5763 5759 5756 5754 5752 5750 5747 5744 5741 5736 5732 5730 5728 5727 5726 5725 5724 5723 5721 5721 5722 5722 5723 5723 5723 5723 5721 5720 5718 5717 5716 5715 5714 5714 5712 5711 5710 5710
5749 5743 5744 5757 5769 5764 5756 5756 5763 5765 5764 5763 5758 5754 5752 5748 5744 5742 5740 5738 5734 5730 5728 5726 5724 5724 5724 5724 5723 5722 5720 5720 5720 5721 5721 5721 5721 5720 5719 5718 5716 5715 5714 5712 5712 5711 5709 5708 5708
5747 5744 5746 5749 5759 5758 5752 5748 5754 5760 5762 5760 5758 5755 5752 5748 5743 5741 5738 5736 5733 5730 5727 5725 5723 5722 5722 5721 5720 5718 5716 5716 5716 5716 5718 5719 5719 5719 5718 5716 5715 5714 5713 5711 5711 5711 5710 5707 5706
5741 5759 5757 5753 5741 5731 5739 5722 5744 5750 5751 5753 5753 5751 5749 5747 5744 5741 5738 5735 5733 5732 5729 5725 5723 5721 5720 5719 5718 5717 5715 5713 5715 5716 5716 5716 5716 5717 5716 5715 5714 5713 5712 5711 5711 5711 5710 5708 5706
5754 5762 5756 5748 5735 5726 5728 5720 5731 5744 5744 5749 5752 5752 5750 5747 5744 5740 5738 5736 5734 5732 5728 5725 5722 5720 5719 5719 5718 5717 5715 5715 5714 5714 5713 5713 5713 5714 5715 5714 5713 5712 5711 5711 5710 5710 5710 5709 5707
5763 5753 5742 5728 5720 5711 5722 5716 5721 5735 5746 5752 5754 5754 5752 5748 5744 5740 5739 5736 5734 5731 5727 5724 5721 5718 5719 5718 5717 5717 5715 5714 5713 5711 5710 5710 5711 5711 5713 5712 5711 5711 5710 5710 5709 5709 5709 5708 5708
5754 5730 5707 5705 5696 5702 5720 5716 5723 5751 5758 5758 5756 5755 5754 5750 5745 5740 5737 5735 5733 5731 5728 5724 5721 5718 5719 5718 5718 5718 5717 5715 5714 5712 5711 5710 5709 5710 5710 5711 5710 5710 5709 5709 5708 5708 5707 5707 5706
5745 5732 5706 5696 5693 5701 5715 5714 5737 5760 5763 5763 5761 5758 5755 5751 5747 5743 5740 5737 5735 5733 5730 5726 5722 5720 5720 5719 5719 5718 5717 5716 5714 5713 5712 5711 5711 5711 5711 5710 5710 5709 5709 5708 5707 5706 5706 5705 5705
5739 5729 5731 5708 5702 5698 5707 5721 5742 5759 5758 5758 5757 5756 5754 5751 5748 5744 5741 5738 5736 5734 5731 5729 5725 5723 5721 5720 5719 5717 5716 5716 5715 5714 5713 5713 5712 5711 5710 5710 5709 5709 5708 5708 5706 5705 5705 5704 5703
5749 5734 5715 5703 5692 5691 5706 5715 5724 5746 5750 5753 5753 5753 5753 5751 5749 5746 5743 5740 5737 5735 5733 5730 5727 5725 5722 5721 5719 5718 5717 5717 5716 5715 5713 5713 5712 5712 5710 5709 5709 5708 5707 5706 5705 5704 5703 5702 5701
5735 5727 5714 5701 5701 5690 5690 5709 5746 5749 5753 5753 5754 5755 5754 5752 5750 5747 5745 5743 5740 5737 5733 5730 5728 5725 5723 5721 5720 5719 5718 5717 5716 5715 5714 5714 5713 5711 5710 5709 5708 5707 5706 5705 5704 5703 5701 5700 5698
5740 5730 5715 5705 5700 5695 5693 5712 5757 5756 5757 5756 5755 5756 5755 5754 5752 5750 5748 5744 5741 5738 5735 5732 5730 5727 5726 5724 5721 5720 5719 5717 5716 5715 5715 5714 5713 5712 5711 5709 5708 5706 5705 5704 5702 5701 5700 5698 5697